Zurück zum Katalog

STARLINK-3252

AktivKommunikationVLEO
NORAD 49733·PAYLOAD·🇺🇸 United States

Gestartet Dec 2, 2021 von Cape Canaveral Space Force Station

Loading…

Nächste Überflüge (nächste 24 Stunden)

TLE

AktuellSource: CelesTrak SupGP

Epoche: Sep 15, 2026, 02:06 UTC

1 49733C 21115K   26258.08798611 -.00136280  00000+0 -43779-2 0  2580
2 49733  53.1589  17.0320 0001173  90.0009 234.6350 15.31802602    14

Verfolge STARLINK-3252 in Echtzeit mit AllMySat

Download on the App Store